Regional Weather Roundup
Issued by NWS Northern Indiana

Home | Current Version | Previous Version | Text Only | Print | Product List | Glossary Off
Versions: 1 2 3 4 5 6 7 8 9 10 11 12 13 14 15 16 17 18 19 20 21 22 23 24 25 26 27 28 29 30 31 32 33 34 35 36 37 38 39 40 41 42 43 44 45 46 47 48 49 50

000
ASUS43 KIWX 301500
RWRIWX

KIWX WEATHER ROUNDUP
NATIONAL WEATHER SERVICE NORTHERN INDIANA
1100 AM EDT MON MAR 30 2015

NOTE: "FAIR" INDICATES FEW OR NO CLOUDS BELOW 12,000 FEET WITH NO
SIGNIFICANT WEATHER AND/OR OBSTRUCTIONS TO VISIBILITY.

* THESE STATIONS ARE NOT UNDER NWS QUALITY CONTROL. THEY ALSO MAY NOT
  REPORT WEATHER SUCH AS PRECIPITATION OR FOG.

INZ001>027-301600-
NORTHERN INDIANA

CITY           SKY/WX    TMP DP  RH WIND       PRES   REMARKS
GARY*          MOSUNNY   50  23  34 W10       30.07
KNOX*            N/A     46  14  27 W10       30.06R
SOUTH BEND     SUNNY     50  25  37 NW21G28   30.05R
ELKHART*       SUNNY     48  27  43 W17       30.03R
GOSHEN         SUNNY     48  31  51 W16       30.03R
WARSAW*        SUNNY     46  32  57 W17       30.04R
ANGOLA*        SUNNY     46  28  49 NW15      29.99R
FORT WAYNE     SUNNY     46  33  60 W14       30.05R

$$
INZ028>050-301600-
CENTRAL INDIANA

CITY           SKY/WX    TMP DP  RH WIND       PRES   REMARKS
LAFAYETTE      SUNNY     49  30  48 NW9       30.10R
KOKOMO*          N/A     45  36  70 W12       30.09R
MUNCIE*        SUNNY     46  36  68 W12       30.08R
INDIANAPOLIS   MOSUNNY   48  32  53 W10       30.11R

$$
MIZ043>046-050>051-056>058-064>065-071>073-077>080-301600-
SOUTHWEST LOWER MICHIGAN

CITY           SKY/WX    TMP DP  RH WIND       PRES   REMARKS
BATTLE CREEK   SUNNY     48  28  46 W18G24    29.97R
BENTON HARBOR  SUNNY     44  32  62 W17       30.03R
COLDWATER*     SUNNY     47  27  45 W20G26    29.97S
HILLSDALE*     SUNNY     47  27  44 W17G24    29.96R
HOLLAND        SUNNY     45  32  60 W16G25    29.99R
GRAND RAPIDS   MOSUNNY   47  30  51 W17       29.95R
KALAMAZOO      SUNNY     48  28  46 W21G26    29.99R
STURGIS*       SUNNY     46  30  53 W14G23    29.99S
THREE RIVERS*  FAIR      48  29  48 W16       30.00R

$$
OHZ001>008-015>018-024>025-301600-
NORTHWEST OHIO

CITY           SKY/WX    TMP DP  RH WIND       PRES   REMARKS
DEFIANCE       SUNNY     48  29  47 VRB7G17   30.02R
FINDLAY        SUNNY     47  30  51 W17G23    30.01R
TOLEDO EXPRESS SUNNY     46  28  49 W14G23    29.98R
TOLEDO METCALF SUNNY     48  28  46 W16G28    29.99R
LIMA           SUNNY     47  31  53 W18       30.03R

$$
AND FOR LAKE MICHIGAN COASTAL AND OPEN LAKE BUOY OBSERVATIONS

STATION/POSITION TEMP    WIND        PRES    VSBY  WAVE
                 AIR SEA DIR/SP/G                  HT/PER
                 (F)     (DEG/KT/KT) (MB)    (MI)  (FT/S)
CALUMET HARBOR    45     250/  6/  9 1016.6R
MICHIGAN CITY     37     220/ 14/ 15   N/A
BURNS HARBOR      41     260/ 11/ 12 1018.6S
SAINT JOSEPH      37     220/  7/ 12 1017.3R
SAINT JOSEPH CG                      1017.2      6   0

$$
&&



USA.gov is the U.S. government's official web portal to all federal, state and local government web resources and services.